Theta_e
344 344 345 345 345 344 344 343 340 340 339 342 343 344 343 343 343 343 341 340 340 338 337 336 335 337 340 340 339 338 337 331 332 338 338 337 337 336 336 336 338 337 332
343 344 345 344 344 343 344 342 333 340 340 340 341 343 344 342 343 344 342 340 339 337 338 337 336 338 339 338 336 335 333 336 338 338 336 336 336 337 338 338 336 337 336
345 344 344 344 343 344 343 341 330 341 343 335 337 340 343 342 343 344 341 339 337 337 337 337 339 339 339 337 335 335 333 335 334 334 333 333 333 334 333 333 332 335 335
345 344 344 343 343 343 342 337 329 342 342 337 336 337 340 342 343 341 339 337 336 336 337 337 338 336 334 334 336 335 333 331 330 325 322 321 327 329 329 332 332 332 333
344 343 343 344 343 343 341 336 332 342 341 336 335 335 337 340 339 338 336 336 336 334 332 332 333 333 332 335 334 333 332 331 326 320 319 321 323 328 329 329 329 331 332
344 342 344 342 342 342 340 334 337 343 339 334 335 335 335 337 336 335 335 335 331 324 325 331 333 331 331 333 333 333 332 331 325 321 322 324 325 328 327 327 327 329 331
342 342 342 342 342 336 335 331 342 341 340 337 335 336 336 338 336 335 334 330 326 322 321 326 331 331 330 330 330 331 331 331 330 326 322 323 327 329 328 326 326 327 329
342 342 342 342 339 334 333 332 342 341 339 338 336 335 336 338 337 334 333 332 326 322 321 321 322 327 328 328 328 329 329 330 330 330 325 323 326 326 323 321 321 324 325
341 342 343 342 339 336 331 335 340 342 340 339 337 333 333 334 334 334 333 333 329 325 324 323 323 322 323 325 328 328 328 327 328 329 328 326 324 324 322 320 319 319 316
340 342 343 340 339 331 330 331 340 341 341 340 336 333 323 320 325 332 334 334 331 326 325 324 323 323 322 323 325 328 328 328 328 328 328 327 325 323 323 323 321 319 318
342 343 343 339 336 330 328 331 337 340 343 342 337 332 330 322 322 324 324 324 324 323 323 323 322 321 320 320 320 324 328 326 326 326 327 326 325 324 321 324 325 323 321
344 343 341 339 336 331 329 333 334 338 338 341 339 334 332 329 325 322 321 322 322 322 322 321 321 321 321 324 324 323 326 325 325 325 325 325 324 327 324 323 325 326 325
342 342 340 340 337 333 328 332 335 334 335 338 340 335 334 332 329 328 328 325 322 320 319 320 321 321 325 327 326 325 323 323 323 323 323 324 323 323 325 325 325 327 327
340 339 338 339 337 336 333 327 336 336 334 333 338 337 334 334 334 333 333 330 327 325 323 319 322 329 329 329 329 329 328 328 327 325 325 323 323 323 324 325 327 327 329
336 332 329 337 337 337 337 335 327 335 336 336 334 335 334 335 334 334 333 331 329 326 328 327 329 329 329 330 330 330 331 330 330 330 330 329 328 326 326 326 327 329 331
328 327 328 330 334 337 337 336 334 325 327 334 334 332 330 332 331 332 329 328 329 329 329 329 328 327 328 329 331 332 332 332 332 332 332 332 331 330 329 328 329 329 330
326 327 328 328 329 335 338 337 336 337 332 327 327 328 330 329 329 330 328 327 327 329 328 328 326 325 326 329 331 332 332 333 333 333 333 333 332 331 330 330 330 328 329
331 330 334 335 338 335 336 337 336 337 338 338 334 331 329 329 329 329 328 328 327 327 327 326 325 326 328 330 332 333 333 332 331 330 330 331 330 331 331 331 330 329 330
336 335 336 335 333 332 336 334 333 334 337 338 337 335 331 331 332 332 331 330 330 331 331 331 331 332 333 332 331 330 331 331 330 330 331 331 332 332 332 332 331 330 329
337 339 338 336 334 334 335 335 326 331 337 337 337 337 334 332 333 334 333 332 331 331 333 334 335 332 332 332 332 332 331 330 329 328 328 328 327 328 331 332 331 330 328
338 338 337 336 335 336 338 330 329 332 337 338 338 337 335 334 335 336 336 335 333 333 334 334 334 334 334 333 334 333 329 328 328 327 327 327 327 328 329 331 331 329 326
336 336 338 336 337 338 334 336 337 338 338 337 338 336 337 336 336 336 334 335 336 335 335 335 334 334 334 333 333 332 329 326 326 326 326 326 325 325 328 329 327 325 323
335 337 337 337 338 337 337 338 338 337 337 337 336 336 336 336 337 336 336 335 336 335 334 334 334 333 332 332 330 331 328 323 322 326 325 324 324 325 325 324 322 322 321
322 335 336 336 335 336 337 336 335 336 335 334 335 335 335 335 334 334 336 335 333 332 333 334 334 332 332 332 329 329 328 328 325 322 323 323 322 322 322 321 320 319 319
321 323 333 334 335 335 335 334 335 335 334 333 333 332 331 332 333 333 331 331 331 331 333 332 333 331 330 329 327 325 323 322 322 322 322 319 321 321 320 320 319 318 317
317 318 324 330 334 336 337 335 335 335 334 333 332 331 328 329 330 329 331 330 330 330 329 328 325 320 317 318 318 319 320 320 317 317 316 316 317 318 318 318 317 315 315
Wind_Speed
26 27 25 23 21 19 19 18 16 20 18 17 18 18 19 22 25 25 22 19 18 19 19 20 20 20 18 18 18 20 19 17 19 20 21 20 19 18 17 18 18 15 13
33 29 26 25 22 19 19 18 17 23 20 18 17 18 20 23 24 23 22 20 19 19 18 19 20 19 17 16 15 17 18 19 18 18 18 17 16 15 15 16 16 17 14
32 30 26 25 22 20 19 17 18 22 21 18 17 17 19 21 22 22 21 19 18 18 18 19 18 17 16 13 12 14 15 15 13 11 10 10 11 11 11 12 12 14 14
31 29 26 23 22 21 18 17 20 20 20 18 18 18 18 19 19 19 18 18 18 17 18 18 17 17 15 13 14 15 14 12 10 8 10 12 13 12 11 10 10 10 11
30 28 25 23 22 19 16 17 22 20 18 16 17 19 19 19 18 17 17 18 17 18 19 20 19 17 14 14 14 14 12 11 10 10 12 13 13 12 12 11 10 10 10
28 26 23 22 20 17 15 18 22 20 18 16 18 19 20 19 18 18 17 17 19 20 20 20 19 16 15 14 13 11 10 9 10 10 12 12 13 11 11 11 11 10 9
27 24 22 20 18 15 16 20 19 21 17 16 17 18 19 20 19 18 17 17 18 19 19 18 17 15 13 11 10 9 8 7 8 9 10 10 10 10 11 11 11 10 9
26 23 21 19 16 15 16 21 18 20 17 15 16 17 18 19 19 18 17 16 17 17 17 16 15 13 11 10 8 7 6 5 5 6 8 9 8 9 9 10 10 10 9
24 22 20 18 16 14 15 19 19 19 17 15 15 16 18 18 18 16 16 15 14 14 14 13 12 11 9 8 7 5 5 3 3 3 5 7 7 7 8 9 9 9 9
23 22 20 18 16 13 16 19 19 17 18 16 13 13 14 15 16 16 14 13 12 11 11 10 9 8 7 6 6 5 2 2 1 1 2 4 5 5 6 7 7 8 8
20 22 21 18 15 13 15 18 19 17 15 18 14 13 13 14 14 14 14 13 11 10 8 7 6 5 4 4 5 5 3 2 2 2 2 2 3 4 5 5 6 6 7
19 21 22 19 15 12 14 16 17 18 17 17 16 14 11 11 11 11 11 10 10 9 8 7 5 5 4 4 3 3 3 3 3 4 4 4 3 4 6 6 6 6 6
29 19 18 18 17 13 13 16 15 17 18 17 17 15 12 10 11 11 9 9 9 9 8 8 7 6 5 3 3 3 4 4 5 5 5 5 5 5 6 7 7 6 7
42 27 16 13 16 14 11 14 15 16 19 18 18 16 14 12 12 12 10 8 9 8 8 8 7 5 5 4 4 3 4 5 5 6 6 7 7 7 7 7 8 9 9
32 36 22 11 16 17 13 12 16 18 19 19 19 18 16 15 13 12 11 10 8 8 7 8 7 7 6 7 7 8 8 8 8 8 8 9 10 10 9 9 8 8 10
27 28 31 22 20 19 18 15 15 18 20 20 20 20 19 17 14 15 13 12 11 9 8 8 7 8 8 7 8 8 8 9 10 10 11 12 12 13 13 13 12 10 9
30 29 33 32 26 21 21 20 19 16 17 19 20 21 20 18 17 17 15 14 12 11 10 9 9 9 8 8 8 10 11 10 11 13 15 16 16 15 16 15 16 14 12
23 31 33 31 30 32 25 23 22 22 21 21 23 23 22 20 19 18 17 15 12 12 11 10 9 9 9 10 11 10 12 13 14 13 17 19 18 16 16 17 18 17 13
29 29 36 45 36 34 27 26 26 25 28 26 24 27 26 23 20 20 19 16 14 12 13 10 9 9 9 11 12 13 13 15 18 19 21 22 22 21 17 17 15 15 14
36 34 36 34 34 35 34 33 15 27 31 31 25 26 28 29 23 21 19 18 16 15 14 13 12 11 12 12 15 17 18 18 20 23 24 23 23 21 17 17 14 12 15
29 31 38 34 32 37 35 31 31 35 33 30 26 23 27 29 25 22 18 17 17 16 15 14 12 13 13 12 11 16 17 20 23 24 25 23 20 17 15 14 15 13 12
27 32 33 33 39 42 39 28 23 29 35 34 22 21 23 26 26 26 22 19 19 18 16 14 13 11 13 14 10 13 4 8 13 9 11 7 7 10 7 11 12 12 10
18 24 34 35 37 35 35 31 29 29 28 29 26 26 25 26 24 28 25 20 20 17 15 14 14 13 15 14 16 7 2 3 3 11 7 8 7 5 5 9 11 12 12
23 24 24 25 25 26 25 25 25 28 24 24 26 26 25 24 22 23 22 18 17 18 19 19 19 17 16 18 19 15 15 10 3 4 3 3 11 9 6 9 12 12 11
29 25 23 22 22 25 26 27 27 27 24 21 19 15 18 23 21 17 16 15 19 23 20 16 15 15 16 17 16 12 9 12 14 8 5 6 7 4 5 8 13 14 12
22 24 21 21 22 21 24 26 28 28 27 21 21 20 16 23 22 18 16 15 14 13 13 13 12 12 11 12 13 13 13 7 3 5 3 6 7 6 7 8 12 14 14
Wind_Direction
165 163 163 153 149 147 142 136 133 130 127 123 111 108 121 131 128 119 118 114 106 104 103 101 103 104 98 94 89 82 88 88 85 81 75 78 79 74 71 68 61 56 60
160 161 161 153 153 151 146 143 137 136 129 131 122 115 120 125 122 120 115 110 108 106 107 106 106 106 104 98 92 87 92 92 90 83 77 75 70 67 64 68 65 60 63
156 159 159 156 155 152 146 144 144 141 140 134 130 126 125 125 124 118 117 112 112 111 110 110 111 109 105 99 95 95 100 97 87 79 80 79 76 69 66 63 61 59 61
155 158 158 158 156 150 149 146 148 140 142 134 132 131 130 127 124 121 118 118 119 118 117 117 118 114 105 99 103 104 101 90 81 74 75 75 72 63 65 67 65 63 63
155 159 158 158 155 149 152 153 152 144 143 136 133 135 135 135 133 130 127 127 126 126 126 129 126 120 110 107 110 110 103 86 70 78 75 73 69 66 64 64 67 66 65
155 159 158 158 154 152 155 158 153 148 143 138 135 137 138 139 138 136 134 136 132 132 134 136 135 127 117 112 113 115 106 87 80 75 70 70 67 67 63 62 62 61 65
157 160 159 159 153 153 152 158 155 152 145 140 138 140 144 142 140 141 141 141 132 135 137 140 142 137 131 126 119 115 121 101 84 76 69 65 67 69 65 62 62 61 60
157 159 159 158 154 153 155 162 158 158 151 146 143 143 146 147 144 145 144 142 138 139 141 143 144 146 144 138 125 116 116 115 93 80 65 57 57 56 54 54 55 56 57
159 158 159 156 152 155 159 164 164 161 159 155 149 149 151 152 151 151 149 147 145 145 147 150 149 149 148 151 146 126 118 100 94 81 57 45 42 40 38 39 42 42 44
162 160 158 158 156 159 163 168 172 162 169 167 155 155 154 152 153 156 155 156 158 157 155 153 153 152 149 146 153 159 147 108 18 301 17 29 30 21 22 24 28 29 28
162 164 160 162 161 163 166 171 175 172 163 177 165 158 158 158 160 163 162 164 165 168 169 166 165 165 166 165 169 189 206 259 316 290 278 320 6 350 356 2 9 11 12
162 171 166 166 164 166 174 174 180 181 180 180 179 169 164 169 169 171 171 174 175 178 180 183 184 188 194 180 183 186 208 271 307 303 291 294 317 307 332 338 342 347 348
167 168 173 171 168 173 181 185 188 192 194 187 186 184 179 180 180 180 184 187 192 196 198 198 199 205 198 206 239 251 257 275 292 308 293 287 292 290 302 315 318 320 320
153 158 170 188 185 179 187 195 196 193 194 195 197 198 196 192 194 195 202 213 216 216 217 212 208 202 211 233 257 263 272 288 295 296 304 295 288 288 290 292 298 302 302
149 167 183 196 234 194 191 202 207 206 205 202 202 206 210 213 220 218 222 219 215 215 221 216 217 227 240 252 263 271 275 278 282 287 289 285 281 280 281 282 285 279 289
156 177 186 197 233 225 206 205 206 211 216 213 214 218 218 219 230 226 225 221 222 219 218 231 242 249 255 265 272 278 283 283 281 284 285 285 283 279 274 270 276 277 275
162 173 178 181 216 218 222 218 214 219 217 220 219 217 220 224 226 226 229 231 230 228 229 236 247 252 255 264 275 282 286 288 288 287 290 293 287 281 273 276 271 268 275
182 174 174 195 210 201 211 220 227 227 230 232 230 223 223 227 227 229 229 232 230 226 231 236 243 251 265 273 282 289 288 290 294 296 299 301 296 295 278 270 262 262 269
189 187 192 191 200 205 207 212 231 235 242 238 236 233 228 222 225 230 232 233 229 229 232 232 238 249 269 278 286 288 291 291 292 292 287 292 292 287 281 276 267 267 246
196 194 193 203 208 210 204 207 233 225 235 236 232 237 230 226 222 226 231 233 230 228 228 231 237 253 265 278 285 284 287 290 291 296 295 293 289 286 281 268 264 264 232
208 205 208 203 207 208 209 216 221 230 232 227 230 234 229 226 225 221 226 228 227 228 228 232 244 253 258 272 293 291 289 290 287 289 287 287 294 288 274 260 252 226 214
209 214 213 212 212 215 216 220 216 220 227 229 218 226 220 218 228 227 229 225 220 222 233 240 243 249 269 276 273 293 298 297 285 296 296 291 327 328 278 243 221 212 216
214 213 212 215 219 224 226 229 228 232 235 234 228 226 223 228 231 226 228 230 234 234 241 236 244 256 268 279 277 258 308 248 311 286 272 295 333 329 257 226 219 216 216
224 223 223 224 228 231 234 235 237 239 240 248 243 234 242 237 241 234 228 237 254 255 255 253 253 255 260 268 274 277 260 264 281 319 264 289 314 310 285 232 223 222 222
227 225 222 223 227 228 227 229 233 235 236 236 250 245 257 267 256 249 248 238 245 247 243 246 247 261 263 263 264 263 259 263 258 234 276 298 273 243 260 239 235 224 219
234 230 228 227 232 233 231 233 233 234 237 228 227 223 217 250 232 226 228 231 237 249 262 270 268 262 262 261 264 265 262 252 262 242 253 271 270 270 245 235 226 218 212